Flag for Germany Weather past 2 weeks in Uelzen, Lower Saxony, Germany

Now
59 °F

Fog.


Feels Like: 59 °F
Forecast: 55 / 67 °F
Wind: 1 mph from Southwest

Location: Fassberg

Current Time: Oct 1, 2014 at 8:26:32 PM

Latest Report: Oct 1, 2014 at 7:20 PM


Visibility: 4 mi

Pressure: 30.30 "Hg

Humidity: 94%

Dew point: 57 °F

Location of UelzenLocation

Historic Weather in Uelzen — Graph

°F

Uelzen temperature yesterday

Maximum temperature yesterday: 64 °F (at 3:20 PM)
Minimum temperature yesterday: 54 °F (at 10:20 PM)
Average temperature yesterday: 61 °F

Past Weeks' High & Low Weather Summary

 TemperatureHumidityPressure
High73 °F (Sep 17, 3:20 PM)100% (Sep 18, 5:20 AM)30.36 "Hg (Sep 18, 5:20 AM)
Low37 °F (Sep 23, 7:20 AM)46% (Sep 21, 4:20 PM)29.80 "Hg (Sep 24, 4:20 PM)
Average58 °F80%30.06 "Hg
* Reported Sep 16 7:20 PM — Oct 1 7:00 PM, Uelzen, Weather by CustomWeather, © 2014

Note: Actual official high and low records may vary slightly from our data, if they occured in-between our weather recording intervals... More about our weather records

Advertising

Uelzen weather history for previous 24 hours

 ConditionsComfort  
Time TempWeatherWind HumidityBarometerVisibility
7:00 PM
Oct 1
61 °FFog.1 mph88%30.30 "Hg4 mi
6:20 PM64 °FPartly sunny.3 mph78%30.30 "Hg5 mi
5:20 PM66 °FScattered clouds.5 mph73%30.30 "Hg6 mi
5:00 PM66 °FPassing clouds.6 mph68%30.30 "Hg6 mi
4:20 PM66 °FPartly sunny.5 mph73%30.30 "Hg5 mi
3:20 PM66 °FBroken clouds.9 mph68%30.30 "Hg5 mi
2:20 PM66 °FSprinkles. Broken clouds.10 mph68%30.30 "Hg5 mi
1:20 PM66 °FBroken clouds.9 mph68%30.33 "Hg5 mi
12:20 PM64 °FScattered clouds.8 mph73%30.33 "Hg4 mi
11:20 AM63 °FFog.5 mph83%30.33 "Hg2 mi
10:48 AM59 °FFog.3 mph88%30.30 "Hg1 mi
10:20 AM57 °FFog.6 mph94%30.30 "Hg0 mi
9:20 AM55 °FFog.2 mph94%30.30 "Hg1 mi
8:20 AM54 °FFog.No wind94%30.30 "Hg1 mi
7:20 AM50 °FFog.No wind100%30.30 "Hg0 mi
6:20 AM52 °FFog.No wind94%30.30 "Hg1 mi
5:20 AM50 °FPassing clouds.No wind100%30.30 "Hg1 mi
4:20 AM50 °FFog.1 mph100%30.30 "Hg1 mi
3:20 AM48 °FFog.No wind100%30.30 "Hg0 mi
2:20 AM48 °FFog.No wind100%30.27 "Hg0 mi
1:20 AM50 °FFog.No wind100%30.27 "Hg0 mi
12:20 AM52 °FFog.No wind94%30.27 "Hg1 mi
11:20 PM
Sep 30
55 °FPassing clouds.3 mph94%30.27 "Hg1 mi
10:20 PM54 °FFog.1 mph94%30.27 "Hg0 mi
8:20 PM59 °FFog.2 mph94%30.27 "Hg3 mi
Weather by CustomWeather, © 2014

See weather overviewHow to use our weather pages